May 27, 2015
Temp
 
69.7 °F
 
Dew Pt.
 
57.0 °F
 
Humidity
 
64%
 
Pressure
 
1014.9 hPa 
  steady
Wind
 
3.0 mph 
    W
Rain
 
0.00 in 
  0.00 in/hr
UV index
 
6.7  
 
Solar rad.
 
953 W/m²
 
This
Afternoon

Mostly Sunny
Mostly
Sunny
Tonight

Partly Cloudy
Partly
Cloudy
Hi 75 °F Lo 58 °F
Statistics - 5/27/2015
Max Temp 69.4 °F  12:30 pm
Min Temp 58.3 °F  5:40 am
Max Dew Pt 57.1 °F  12:30 pm
Min Dew Pt 53.0 °F  6:30 am
Max Pressure 1015.6 hPa  11:35 am
Min Pressure 1014.3 hPa  5:10 am
Max Wind 6 mph  12:30 pm
Max UV 6.8   12:20 pm
Max Solar 958 W/m²  12:30 pm
Max Rainfall Rate —   —
Total Precipitation —   
Current Temp 69.4 °F  12:30 pm
Temp 24hr ago 66.9 °F  12:30 pm
Difference +2.5 °F  
Temp Rate +7.4 °F/hr  
Pressure Rate -0.6 hPa/hr  
time temp dew pt pressure uv solar wind wind speed rainfall rate
00:00 60.0 °F 53.5 °F 1015.2 hPa  Calm    
00:05 59.9 °F 53.4 °F 1015.2 hPa  Calm    
00:10 59.9 °F 53.7 °F 1015.2 hPa  Calm    
00:15 59.9 °F 53.7 °F 1015.2 hPa  Calm    
00:20 59.8 °F 53.6 °F 1015.1 hPa  Calm    
00:25 59.8 °F 53.6 °F 1015.1 hPa  WSW 3 mph   
00:30 59.7 °F 53.5 °F 1015.2 hPa  Calm    
00:35 59.6 °F 53.4 °F 1015.1 hPa  Calm    
00:40 59.6 °F 53.4 °F 1015.1 hPa  Calm    
00:45 59.5 °F 53.3 °F 1015.1 hPa  Calm    
00:50 59.5 °F 53.3 °F 1015.0 hPa  WSW 1 mph   
00:55 59.5 °F 53.3 °F 1014.9 hPa  Calm    
01:00 59.5 °F 53.3 °F 1015.0 hPa  Calm    
01:05 59.4 °F 53.2 °F 1015.0 hPa  Calm    
01:10 59.3 °F 53.1 °F 1015.0 hPa  Calm    
01:15 59.3 °F 53.1 °F 1015.1 hPa  Calm    
01:20 59.2 °F 53.4 °F 1015.0 hPa  Calm    
01:25 59.1 °F 53.3 °F 1015.1 hPa  Calm    
01:30 59.1 °F 53.3 °F 1015.1 hPa  Calm    
01:35 59.1 °F 53.3 °F 1015.1 hPa  WSW 2 mph   
01:40 59.1 °F 53.3 °F 1015.2 hPa  WSW 1 mph   
01:45 59.0 °F 53.2 °F 1015.1 hPa  Calm    
01:50 59.0 °F 53.2 °F 1015.1 hPa  Calm    
01:55 59.0 °F 53.2 °F 1015.1 hPa  Calm    
02:00 59.0 °F 53.2 °F 1015.1 hPa  Calm    
02:05 59.1 °F 53.3 °F 1015.0 hPa  Calm    
02:10 59.0 °F 53.2 °F 1015.0 hPa  Calm    
02:15 59.0 °F 53.2 °F 1014.9 hPa  Calm    
02:20 59.0 °F 53.2 °F 1014.9 hPa  Calm    
02:25 59.0 °F 53.2 °F 1014.9 hPa  Calm    
02:30 59.0 °F 53.2 °F 1014.8 hPa  Calm    
02:35 59.0 °F 53.2 °F 1014.8 hPa  Calm    
02:40 59.0 °F 53.2 °F 1014.8 hPa  Calm    
02:45 59.0 °F 53.2 °F 1014.8 hPa  Calm    
02:50 59.0 °F 53.2 °F 1014.8 hPa  Calm    
02:55 59.0 °F 53.2 °F 1014.8 hPa  Calm    
03:00 59.0 °F 53.2 °F 1014.7 hPa  Calm    
03:05 59.0 °F 53.2 °F 1014.7 hPa  Calm    
03:10 59.0 °F 53.2 °F 1014.7 hPa  Calm    
03:15 59.0 °F 53.2 °F 1014.7 hPa  Calm    
03:20 59.0 °F 53.5 °F 1014.7 hPa  Calm    
03:25 59.0 °F 53.5 °F 1014.7 hPa  Calm    
03:30 59.0 °F 53.5 °F 1014.8 hPa  Calm    
03:35 58.9 °F 53.4 °F 1014.9 hPa  Calm    
03:40 58.9 °F 53.4 °F 1014.9 hPa  Calm    
03:45 58.9 °F 53.4 °F 1014.9 hPa  Calm    
03:50 58.8 °F 53.3 °F 1014.9 hPa  WSW 1 mph   
03:55 58.7 °F 53.2 °F 1014.8 hPa  Calm    
04:00 58.7 °F 53.2 °F 1014.9 hPa  Calm    
04:05 58.7 °F 53.2 °F 1014.8 hPa  Calm    
04:10 58.7 °F 53.2 °F 1014.8 hPa  Calm    
04:15 58.7 °F 53.2 °F 1014.8 hPa  Calm    
04:20 58.7 °F 53.2 °F 1014.7 hPa  Calm    
04:25 58.7 °F 53.2 °F 1014.7 hPa  Calm    
04:30 58.6 °F 53.1 °F 1014.7 hPa  Calm    
04:35 58.6 °F 53.1 °F 1014.6 hPa  Calm    
04:40 58.6 °F 53.1 °F 1014.6 hPa  Calm    
04:45 58.6 °F 53.1 °F 1014.5 hPa  Calm    
04:50 58.6 °F 53.5 °F 1014.5 hPa  Calm    
04:55 58.7 °F 53.5 °F 1014.5 hPa  Calm    
05:00 58.6 °F 53.5 °F 1014.4 hPa  Calm    
05:05 58.5 °F 53.0 °F 1014.3 hPa  Calm    
05:10 58.5 °F 53.4 °F 1014.3 hPa  Calm    
05:15 58.4 °F 53.3 °F 1014.4 hPa  Calm    
05:20 58.4 °F 53.3 °F 1014.4 hPa  Calm    
05:25 58.4 °F 53.3 °F 1014.4 hPa  Calm    
05:30 58.4 °F 53.3 °F 1014.4 hPa  Calm    
05:35 58.4 °F 53.3 °F 1014.4 hPa  Calm    
05:40 58.4 °F 53.3 °F 1014.5 hPa  Calm    
05:45 58.4 °F 53.3 °F 1014.5 hPa  Calm    
05:50 58.4 °F 53.3 °F 1014.5 hPa  Calm    
05:55 58.5 °F 53.4 °F 1014.6 hPa  Calm    
06:00 58.5 °F 53.4 °F 1014.5 hPa  Calm    
06:05 58.5 °F 53.0 °F 1014.6 hPa  Calm    
06:10 58.5 °F 53.0 °F 1014.6 hPa  Calm    
06:15 58.5 °F 53.0 °F 1014.6 hPa  Calm    
06:20 58.5 °F 53.0 °F 1014.6 hPa 1 W/m²  Calm    
06:25 58.6 °F 53.1 °F 1014.6 hPa 7 W/m²  Calm    
06:30 58.5 °F 53.0 °F 1014.6 hPa 11 W/m²  Calm    
06:35 58.6 °F 53.1 °F 1014.6 hPa 14 W/m²  Calm    
06:40 58.7 °F 53.2 °F 1014.7 hPa 17 W/m²  Calm    
06:45 58.7 °F 53.2 °F 1014.7 hPa 18 W/m²  Calm    
06:50 58.7 °F 53.2 °F 1014.8 hPa 20 W/m²  Calm    
06:55 58.8 °F 53.3 °F 1014.8 hPa 23 W/m²  Calm    
07:00 58.9 °F 53.4 °F 1014.9 hPa 26 W/m²  Calm    
07:05 58.9 °F 53.4 °F 1015.0 hPa 26 W/m²  Calm    
07:10 58.9 °F 53.4 °F 1015.0 hPa 28 W/m²  Calm    
07:15 59.0 °F 53.2 °F 1015.0 hPa 30 W/m²  Calm    
07:20 59.0 °F 53.2 °F 1015.1 hPa 32 W/m²  Calm    
07:25 59.0 °F 53.2 °F 1015.1 hPa 33 W/m²  Calm    
07:30 59.0 °F 53.2 °F 1015.1 hPa 35 W/m²  Calm    
07:35 59.0 °F 53.2 °F 1015.1 hPa 38 W/m²  Calm    
07:40 59.0 °F 53.2 °F 1015.2 hPa 39 W/m²  Calm    
07:45 59.0 °F 53.2 °F 1015.3 hPa 42 W/m²  Calm    
07:50 59.0 °F 53.2 °F 1015.2 hPa 47 W/m²  Calm    
07:55 59.1 °F 53.3 °F 1015.3 hPa 51 W/m²  Calm    
08:00 59.2 °F 53.4 °F 1015.2 hPa 56 W/m²  Calm    
08:05 59.3 °F 53.1 °F 1015.2 hPa 61 W/m²  Calm    
08:10 59.3 °F 53.1 °F 1015.2 hPa 63 W/m²  Calm    
08:15 59.4 °F 53.2 °F 1015.2 hPa 65 W/m²  Calm    
08:20 59.5 °F 53.3 °F 1015.2 hPa 67 W/m²  Calm    
08:25 59.5 °F 53.3 °F 1015.3 hPa 72 W/m²  Calm    
08:30 59.6 °F 53.4 °F 1015.3 hPa 76 W/m²  WNW 1 mph   
08:35 59.7 °F 53.5 °F 1015.3 hPa 79 W/m²  Calm    
08:40 59.8 °F 53.6 °F 1015.3 hPa 81 W/m²  Calm    
08:45 59.9 °F 53.7 °F 1015.3 hPa 86 W/m²  Calm    
08:50 59.9 °F 53.7 °F 1015.4 hPa 90 W/m²  Calm    
08:55 60.0 °F 53.8 °F 1015.3 hPa 97 W/m²  Calm    
09:00 60.2 °F 54.0 °F 1015.3 hPa 104 W/m²  WNW 1 mph   
09:05 60.2 °F 53.7 °F 1015.4 hPa 98 W/m²  Calm    
09:10 60.3 °F 53.8 °F 1015.4 hPa 92 W/m²  WNW 4 mph   
09:15 60.4 °F 53.5 °F 1015.4 hPa 99 W/m²  WNW 5 mph   
09:20 60.4 °F 53.5 °F 1015.5 hPa 106 W/m²  WNW 4 mph   
09:25 60.5 °F 53.6 °F 1015.4 hPa 111 W/m²  WNW 3 mph   
09:30 60.5 °F 53.6 °F 1015.3 hPa 128 W/m²  NE 1 mph   
09:35 60.7 °F 53.8 °F 1015.3 hPa 154 W/m²  W 4 mph   
09:40 60.7 °F 53.8 °F 1015.2 hPa 178 W/m²  W 5 mph   
09:45 60.8 °F 53.9 °F 1015.2 hPa 188 W/m²  WSW 1 mph   
09:50 61.0 °F 54.1 °F 1015.3 hPa 200 W/m²  WSW 3 mph   
09:55 61.1 °F 54.2 °F 1015.3 hPa 205 W/m²  WSW 3 mph   
10:00 61.3 °F 54.0 °F 1015.4 hPa 198 W/m²  WSW 5 mph   
10:05 61.5 °F 54.2 °F 1015.3 hPa 210 W/m²  SSW 3 mph   
10:10 61.6 °F 54.0 °F 1015.4 hPa 0.5 220 W/m²  Calm    
10:15 61.8 °F 54.2 °F 1015.4 hPa 0.5 220 W/m²  Calm    
10:20 62.0 °F 54.3 °F 1015.4 hPa 211 W/m²  SSW 3 mph   
10:25 62.1 °F 54.4 °F 1015.4 hPa 202 W/m²  SSW 6 mph   
10:30 62.3 °F 54.6 °F 1015.4 hPa 191 W/m²  SSW 5 mph   
10:35 62.5 °F 54.5 °F 1015.5 hPa 194 W/m²  SSW 3 mph   
10:40 62.5 °F 54.5 °F 1015.4 hPa 0.6 216 W/m²  SSW 6 mph   
10:45 62.7 °F 54.7 °F 1015.5 hPa 0.6 218 W/m²  SSW 4 mph   
10:50 62.8 °F 54.8 °F 1015.5 hPa 0.7 224 W/m²  SSW 1 mph   
10:55 62.9 °F 54.5 °F 1015.5 hPa 0.7 225 W/m²  Calm    
11:00 63.0 °F 54.6 °F 1015.5 hPa 0.8 227 W/m²  Calm    
11:05 63.2 °F 54.8 °F 1015.5 hPa 0.9 241 W/m²  Calm    
11:10 63.4 °F 55.0 °F 1015.5 hPa 1.1 254 W/m²  SSW 1 mph   
11:15 63.5 °F 55.1 °F 1015.4 hPa 1.2 265 W/m²  Calm    
11:20 63.6 °F 54.8 °F 1015.4 hPa 1.4 294 W/m²  Calm    
11:25 63.9 °F 55.1 °F 1015.4 hPa 1.6 315 W/m²  Calm    
11:30 64.0 °F 55.2 °F 1015.6 hPa 1.5 319 W/m²  SW 5 mph   
11:35 64.3 °F 55.5 °F 1015.6 hPa 1.4 296 W/m²  SW 3 mph   
11:40 64.4 °F 55.2 °F 1015.5 hPa 1.9 324 W/m²  SW 5 mph   
11:45 64.6 °F 55.4 °F 1015.4 hPa 2.2 376 W/m²  SW 1 mph   
11:50 64.9 °F 55.7 °F 1015.4 hPa 2.8 429 W/m²  SW 1 mph   
11:55 65.2 °F 55.6 °F 1015.4 hPa 3.3 495 W/m²  SW 6 mph   
12:00 65.9 °F 55.8 °F 1015.3 hPa 4.7 600 W/m²  SE 5 mph   
12:05 66.2 °F 55.7 °F 1015.2 hPa 4.8 668 W/m²  WSW 6 mph   
12:10 66.8 °F 55.9 °F 1015.2 hPa 5.2 735 W/m²  SSW 5 mph   
12:15 67.0 °F 55.7 °F 1015.2 hPa 5.0 714 W/m²  SW 5 mph   
12:20 68.1 °F 56.7 °F 1015.1 hPa 5.7 739 W/m²  SW 5 mph   
12:25 68.5 °F 56.3 °F 1015.1 hPa 6.5 895 W/m²  SSE 3 mph   
12:30 69.4 °F 57.1 °F 1015.0 hPa 6.5 944 W/m²  SSW 6 mph